Preview of NWS' New Version of Forecast
This preview is not operational and should not be used for support decisions.

Regional Weather Roundup (RWR)

Issued by National Weather Service (NWS)

                            
000
ASUS46 KSEW 210610
RWRWA 

WASHINGTON REGIONAL WEATHER ROUNDUP
NATIONAL WEATHER SERVICE SEATTLE WA
1100 PM PDT FRI SEP 20 2019

NOTE:"FAIR" INDICATES FEW OR NO CLOUDS BELOW 12,000 FEET WITH NO 
SIGNIFICANT WEATHER AND/OR OBSTRUCTIONS TO VISIBILITY.

WAZ507-509-555>559-210700-
SEATTLE, TACOMA, EVERETT, AND VICINITY
  
CITY           SKY/WX    TMP DP  RH WIND       PRES   REMARKS
EVERETT        PTCLDY    60  53  77 E6        30.14S                  
6HR MIN TEMP:  59; 6HR MAX TEMP:  66;                                

BOEING FIELD   MOCLDY    61  54  77 CALM      30.13S                  
6HR MIN TEMP:  60; 6HR MAX TEMP:  68;                                

RENTON         MOCLDY    59  54  83 E3        30.13R                  
6HR MIN TEMP:  59; 6HR MAX TEMP:  68;                                

SEATAC AIRPORT MOCLDY    60  54  80 W5        30.14R                  
6HR MIN TEMP:  60; 6HR MAX TEMP:  67;                                

JBLM-MCCHORD   MOCLDY    61  61 100 W6        30.14                   
6HR MIN TEMP:  58; 6HR MAX TEMP:  69;                                

PUYALLUP       CLOUDY    59  59 100 CALM      30.14S                  
BREMERTON      MOCLDY    54  52  93 CALM      30.14R                  
6HR MIN TEMP:  53; 6HR MAX TEMP:  65;                                

JBLM-FT LEWIS  CLEAR     59  59 100 CALM      30.13S                  
6HR MIN TEMP:  59; 6HR MAX TEMP:  67; 6HR PCP: TRACE;                

TACOMA NARROWS MOCLDY    59  55  87 SW6       30.13F                  
6HR MIN TEMP:  58; 6HR MAX TEMP:  65;                                

$$
 
WAZ001-503-506-510-514-515-210700-
NORTH INTERIOR
  
CITY           SKY/WX    TMP DP  RH WIND       PRES   REMARKS
BELLINGHAM     CLOUDY    57  52  83 CALM      30.13R                  
6HR MIN TEMP:  55; 6HR MAX TEMP:  65;                                

FRIDAY HARBOR  CLOUDY    53  51  93 CALM      30.14R                  
6HR MIN TEMP:  51; 6HR MAX TEMP:  67;                                

EASTSOUND      CLOUDY    54  54 100 SE5       30.11F                  
PORT ANGELES   CLOUDY    58  55  90 W3        30.15R                  
6HR MIN TEMP:  58; 6HR MAX TEMP:  65;                                

EDIZ HOOK      CLOUDY    59  56  89 W6        30.14S                  
6HR MIN TEMP:  58; 6HR MAX TEMP:  61;                                

PORT TOWNSEND  MOCLDY    52  52 100 CALM      30.13R                  
NAS WHIDBEY    MOCLDY    59  52  77 E6        30.17R                  
6HR MIN TEMP:  57; 6HR MAX TEMP:  66;                                

ARLINGTON      CLEAR     53  52  96 N3        30.14S                  
6HR MIN TEMP:  53; 6HR MAX TEMP:  66;                                

BURLINGTON     CLOUDY    55  54  94 CALM      30.14R                  
$$
 
WAZ020-022-039-040-504-511-512-210700-
SOUTHWEST INTERIOR
  
CITY           SKY/WX    TMP DP  RH WIND       PRES   REMARKS
SHELTON        CLEAR     57  54  89 W5        30.12R                  
6HR MIN TEMP:  57; 6HR MAX TEMP:  70;                                

OLYMPIA        CLEAR     54  52  93 CALM      30.14R                  
6HR MIN TEMP:  54; 6HR MAX TEMP:  68;                                

CHEHALIS       MOCLDY    55  55 100 CALM      30.15S                  
KELSO          CLOUDY    60  57  89 CALM      30.15S                  
6HR MIN TEMP:  60; 6HR MAX TEMP:  68;                                

VANCOUVER      PTCLDY    62  55  77 N3        30.14R                  
6HR MIN TEMP:  61; 6HR MAX TEMP:  68;                                

SCAPPOOSE, OR  MOCLDY    58  55  90 N5        30.14R                  
6HR MIN TEMP:  58; 6HR MAX TEMP:  68;                                

PORTLAND, OR   MOCLDY    62  56  80 CALM      30.14R                  
6HR MIN TEMP:  62; 6HR MAX TEMP:  68;                                

$$
 
WAZ021-516-517-210700-
WASHINGTON COAST
  
CITY           SKY/WX    TMP DP  RH WIND       PRES   REMARKS
FORKS          FOG       52  51  97 CALM      30.15R VSB 1/4          
6HR MIN TEMP:  50; 6HR MAX TEMP:  61;                                

HOQUIAM        CLEAR     58  58 100 CALM      30.15S                  
6HR MIN TEMP:  58; 6HR MAX TEMP:  65;                                

ASTORIA, OR    CLOUDY    61  59  93 S3        30.14S                  
6HR MIN TEMP:  61; 6HR MAX TEMP:  65;                                

$$
 
WAZ019-023-024-040-567>569-210700-
CASCADE MOUNTAINS AND COLUMBIA GORGE
  
CITY           SKY/WX    TMP DP  RH WIND       PRES   REMARKS
STAMPEDE PASS  NOT AVBL                                               
TROUTDALE, OR  CLOUDY    60  56  86 CALM      30.13S                  
6HR MIN TEMP:  60; 6HR MAX TEMP:  67; 6HR PCP: TRACE;                

HOOD RIVER, OR PTCLDY    55  48  76 CALM      30.11S                  
THE DALLES, OR CLEAR     63  48  58 NW10      30.08R                  
6HR MIN TEMP:  62; 6HR MAX TEMP:  72;                                

$$

WAZ026-027-041>044-520-521-210700-
EAST SLOPES
  
CITY           SKY/WX    TMP DP  RH WIND       PRES   REMARKS
OMAK           CLEAR     55  43  63 NW8       30.04R                  
6HR MIN TEMP:  54; 6HR MAX TEMP:  74;                                

WENATCHEE      CLEAR     60  44  55 NW8       30.05R                  
6HR MIN TEMP:  60; 6HR MAX TEMP:  72;                                

ELLENSBURG     CLEAR     58  45  62 NW18G26   30.06S                  
6HR MIN TEMP:  58; 6HR MAX TEMP:  68;                                

YAKIMA         CLEAR     54  42  64 W6        30.06R                  
6HR MIN TEMP:  54; 6HR MAX TEMP:  76;                                

SUNNYSIDE ARPT CLEAR     55  49  81 CALM      30.05R                  
6HR MIN TEMP:  52; 6HR MAX TEMP:  74;                                

YAKIMA TC      FAIR      52  41  65 E8        30.05R                  
6HR MIN TEMP:  51; 6HR MAX TEMP:  72;                                

$$

WAZ028-034-035-210700-
COLUMBIA BASIN
  
CITY           SKY/WX    TMP DP  RH WIND       PRES   REMARKS
EPHRATA        CLEAR     62  43  49 NW14      30.01S                  
6HR MIN TEMP:  62; 6HR MAX TEMP:  75; 6HR PCP: TRACE;                

MOSES LAKE     CLEAR     62  44  51 W7        30.02S                  
6HR MIN TEMP:  62; 6HR MAX TEMP:  77;                                

PASCO          CLEAR     56  51  84 CALM      30.04R                  
6HR MIN TEMP:  55; 6HR MAX TEMP:  75;                                

RICHLAND ARPT  CLEAR     58  49  72 CALM      30.04                   
6HR MIN TEMP:  57; 6HR MAX TEMP:  77;                                

HERMISTON, OR  CLEAR     61  49  64 SW13      30.04S                  
6HR MIN TEMP:  60; 6HR MAX TEMP:  73;                                

$$

WAZ036>038-210700-
NORTHEAST WASHINGTON
  
CITY           SKY/WX    TMP DP  RH WIND       PRES   REMARKS
SPOKANE GEIGER PTCLDY    55  47  74 SW15      30.03S                  
6HR MIN TEMP:  54; 6HR MAX TEMP:  63; 6HR PCP: TRACE;                

SPOKANE FELTS  PTCLDY    57  49  74 SW5       30.04S                  
6HR MIN TEMP:  56; 6HR MAX TEMP:  66; 6HR PCP:  0.01;                

FAIRCHILD AFB  CLEAR     54  53  99 S8        30.04                   
6HR MIN TEMP:  53; 6HR MAX TEMP:  58; 6HR PCP: TRACE;                

COEURDALENE,ID CLOUDY    55  51  86 S5        30.05                   
6HR MIN TEMP:  54; 6HR MAX TEMP:  60; 6HR PCP: TRACE;                

DEER PARK      CLEAR     51  48  89 CALM      30.03F                  
6HR MIN TEMP:  51; 6HR MAX TEMP:  64; 6HR PCP:  0.01;                

$$

WAZ029>033-210700-
SOUTHEAST WASHINGTON
  
CITY           SKY/WX    TMP DP  RH WIND       PRES   REMARKS
PULLMAN        MOCLDY    54  47  77 CALM      30.09R                  
6HR MIN TEMP:  53; 6HR MAX TEMP:  59; 6HR PCP: TRACE;                

LEWISTON, ID   CLOUDY    60  50  69 NE3       30.05S                  
6HR MIN TEMP:  60; 6HR MAX TEMP:  65; 6HR PCP: TRACE;                

WALLA WALLA    PTCLDY    61  44  53 SE7       30.05R                  
6HR MIN TEMP:  61; 6HR MAX TEMP:  69;                                

PENDLETON, OR  CLEAR     59  47  64 S5        30.07R                  
6HR MIN TEMP:  56; 6HR MAX TEMP:  68;                                

$$